Weather History for Cambridge, MD

Change the Weather History Date:

Saturday, January 25, 2014

  Actual Average (KESN) Record (KESN)
Temperature  
Mean Temperature 30 °F -  
Max Temperature 35 °F 46 °F 74 °F (1950)
Min Temperature 24 °F 32 °F 8 °F (1963)
Degree Days  
Heating Degree Days 36    
Moisture  
Dew Point 10 °F    
Average Humidity 45    
Maximum Humidity 80    
Minimum Humidity 34    
Precipitation  
Precipitation 0.00 in - - ()
Sea Level Pressure  
Sea Level Pressure 29.75 in    
Wind  
Wind Speed 11 mph (SSW)    
Max Wind Speed 16 mph    
Max Gust Speed 28 mph    
Visibility 9 miles    
Events      
Averages and records for this station are not official NWS values.
T = Trace of Precipitation, MM = Missing Value Source: NWS Daily Summary

Daily Weather History Graph

Daily Weather History Graph

Search for Another Location

Airport:

Trip Planner

Search our weather history database for the weather conditions in past years. The results will help you decide how hot, cold, wet, or windy it might be!

Date:

Astronomy

Jan. 25, 2014 Rise Set
Actual Time 7:15 AM EST 5:18 PM EST
Civil Twilight 6:46 AM EST 5:46 PM EST
Nautical Twilight 6:14 AM EST 6:18 PM EST
Astronomical Twilight 5:43 AM EST 6:50 PM EST
Moon 1:45 AM EST (1/25) 12:16 PM EST (1/25)
Length of Visible Light 10h 59m
Length of Day
10h 03m
Waning Crescent, 34% of the Moon is Illuminated
Jan 25
Waning Crescent
Jan 30
New
Feb 6
First Quarter
Feb 14
Full
Feb 22
Last Quarter

Hourly Weather History & Observations

Time (EST) Temp. Windchill Dew Point Humidity Pressure Visibility Wind Dir Wind Speed Gust Speed Precip Events Conditions
12:08 AM 24.8 °F 14.0 °F 1.4 °F 36% 30.15 in 10.0 mi SSW 11.5 mph 18.4 mph N/A   Clear
12:28 AM 24.8 °F 15.3 °F 3.2 °F 40% 30.14 in 10.0 mi SSW 9.2 mph 16.1 mph N/A   Clear
12:48 AM 24.8 °F 14.6 °F 3.2 °F 40% 30.13 in 10.0 mi SSW 10.4 mph 17.3 mph N/A   Clear
1:08 AM 24.8 °F 12.9 °F 3.2 °F 40% 30.12 in 10.0 mi SSW 13.8 mph 20.7 mph N/A   Clear
1:28 AM 24.8 °F 14.6 °F 3.2 °F 40% 30.11 in 10.0 mi SSW 10.4 mph 19.6 mph N/A   Clear
1:48 AM 24.8 °F 13.4 °F 1.4 °F 36% 30.10 in 10.0 mi South 12.7 mph 19.6 mph N/A   Clear
2:08 AM 24.8 °F 12.9 °F 1.4 °F 36% 30.08 in 10.0 mi SSW 13.8 mph 23.0 mph N/A   Clear
2:28 AM 26.6 °F 14.7 °F 1.4 °F 34% 30.07 in 10.0 mi SSW 15.0 mph 20.7 mph N/A   Clear
2:48 AM 26.6 °F 15.2 °F 1.4 °F 34% 30.06 in 10.0 mi SSW 13.8 mph 25.3 mph N/A   Clear
3:08 AM 26.6 °F 16.2 °F 3.2 °F 37% 30.05 in 10.0 mi South 11.5 mph 20.7 mph N/A   Clear
3:28 AM 26.6 °F 16.2 °F 3.2 °F 37% 30.03 in 10.0 mi South 11.5 mph 19.6 mph N/A   Clear
3:48 AM 26.6 °F 15.7 °F 5.0 °F 40% 30.01 in 10.0 mi South 12.7 mph 18.4 mph N/A   Clear
4:08 AM 26.6 °F 15.7 °F 3.2 °F 37% 29.97 in 10.0 mi South 12.7 mph 21.9 mph N/A   Clear
4:28 AM 26.6 °F 15.2 °F 5.0 °F 40% 29.97 in 10.0 mi South 13.8 mph 25.3 mph N/A   Clear
4:48 AM 26.6 °F 15.7 °F 5.0 °F 40% 29.95 in 10.0 mi South 12.7 mph 23.0 mph N/A   Clear
5:08 AM 26.6 °F 14.7 °F 5.0 °F 40% 29.94 in 10.0 mi SSW 15.0 mph 24.2 mph N/A   Clear
5:28 AM 26.6 °F 16.8 °F 5.0 °F 40% 29.95 in 10.0 mi SSW 10.4 mph 20.7 mph N/A   Clear
5:48 AM 26.6 °F 16.8 °F 5.0 °F 40% 29.91 in 10.0 mi SSW 10.4 mph 25.3 mph N/A   Clear
6:08 AM 26.6 °F 15.7 °F 5.0 °F 40% 29.90 in 10.0 mi SSW 12.7 mph 21.9 mph N/A   Clear
6:27 AM 28.4 °F 18.0 °F 5.0 °F 37% 29.90 in 10.0 mi SSW 12.7 mph 20.7 mph N/A   Clear
6:48 AM 28.4 °F 18.0 °F 5.0 °F 37% 29.89 in 10.0 mi SSW 12.7 mph 19.6 mph N/A   Clear
7:08 AM 28.4 °F 18.0 °F 5.0 °F 37% 29.88 in 10.0 mi SSW 12.7 mph 20.7 mph N/A   Clear
7:28 AM 28.4 °F 17.0 °F 5.0 °F 37% 29.86 in 10.0 mi South 15.0 mph 24.2 mph N/A   Clear
7:48 AM 28.4 °F 18.5 °F 5.0 °F 37% 29.86 in 10.0 mi SSW 11.5 mph 18.4 mph N/A   Clear
8:09 AM 28.4 °F 17.5 °F 6.8 °F 40% 29.85 in 10.0 mi SSW 13.8 mph 24.2 mph N/A   Clear
8:29 AM 28.4 °F 18.0 °F 6.8 °F 40% 29.84 in 10.0 mi SSW 12.7 mph 19.6 mph N/A   Clear
8:49 AM 28.4 °F 19.1 °F 6.8 °F 40% 29.83 in 10.0 mi SSW 10.4 mph 23.0 mph N/A   Clear
9:09 AM 30.2 °F 19.8 °F 6.8 °F 37% 29.82 in 10.0 mi South 13.8 mph 24.2 mph N/A   Clear
9:29 AM 30.2 °F 18.9 °F 6.8 °F 37% 29.81 in 10.0 mi SSW 16.1 mph 21.9 mph N/A   Clear
9:49 AM 30.2 °F 20.2 °F 8.6 °F 40% 29.79 in 10.0 mi SSW 12.7 mph 24.2 mph N/A   Clear
10:09 AM 30.2 °F 20.2 °F 8.6 °F 40% 29.78 in 10.0 mi SSW 12.7 mph 26.5 mph N/A   Clear
10:29 AM 32.0 °F 21.2 °F 8.6 °F 38% 29.76 in 10.0 mi SSW 16.1 mph 25.3 mph N/A   Clear
10:49 AM 32.0 °F 21.6 °F 8.6 °F 38% 29.74 in 10.0 mi SSW 15.0 mph 25.3 mph N/A   Clear
11:09 AM 32.0 °F 22.1 °F 8.6 °F 38% 29.74 in 10.0 mi SSW 13.8 mph 27.6 mph N/A   Clear
11:29 AM 32.0 °F 22.5 °F 8.6 °F 38% 29.71 in 10.0 mi SSW 12.7 mph 25.3 mph N/A   Scattered Clouds
11:49 AM 30.2 °F 19.3 °F 14.0 °F 51% 29.70 in 1.8 mi SSW 15.0 mph 26.5 mph N/A   Mostly Cloudy
12:09 PM 28.4 °F 18.0 °F 19.4 °F 69% 29.68 in 1.0 mi South 12.7 mph 24.2 mph N/A   Overcast
12:29 PM 28.4 °F 18.5 °F 21.2 °F 74% 29.66 in 0.8 mi South 11.5 mph 21.9 mph N/A   Overcast
12:49 PM 28.4 °F 19.1 °F 21.2 °F 74% 29.63 in 0.5 mi SSW 10.4 mph 21.9 mph N/A   Overcast
1:09 PM 28.4 °F 17.5 °F 23.0 °F 80% 29.61 in 0.8 mi South 13.8 mph 18.4 mph N/A   Overcast
1:29 PM 28.4 °F 18.5 °F 21.2 °F 74% 29.58 in 4.0 mi South 11.5 mph 18.4 mph N/A   Overcast
1:49 PM 30.2 °F 21.9 °F 23.0 °F 75% 29.57 in 10.0 mi South 9.2 mph 16.1 mph N/A   Scattered Clouds
2:09 PM 32.0 °F 22.5 °F 14.0 °F 48% 29.55 in 10.0 mi SSW 12.7 mph 21.9 mph N/A   Clear
2:29 PM 32.0 °F 21.2 °F 10.4 °F 41% 29.53 in 10.0 mi SSW 16.1 mph 24.2 mph N/A   Clear
2:49 PM 32.0 °F 23.0 °F 14.0 °F 48% 29.53 in 10.0 mi SSW 11.5 mph 21.9 mph N/A   Scattered Clouds
3:09 PM 32.0 °F 22.5 °F 14.0 °F 48% 29.53 in 10.0 mi SW 12.7 mph 20.7 mph N/A   Scattered Clouds
3:29 PM 32.0 °F 24.2 °F 14.0 °F 48% 29.52 in 10.0 mi SSW 9.2 mph 20.7 mph N/A   Clear
3:49 PM 32.0 °F 24.2 °F 12.2 °F 44% 29.51 in 10.0 mi SSW 9.2 mph - N/A   Clear
4:09 PM 32.0 °F 24.8 °F 12.2 °F 44% 29.51 in 10.0 mi SSW 8.1 mph - N/A   Clear
4:29 PM 33.8 °F 26.4 °F 10.4 °F 38% 29.51 in 10.0 mi SW 9.2 mph 17.3 mph N/A   Clear
4:50 PM 32.0 °F 23.6 °F 10.4 °F 41% 29.52 in 10.0 mi SW 10.4 mph 20.7 mph N/A   Clear
5:10 PM 32.0 °F 23.6 °F 10.4 °F 41% 29.52 in 10.0 mi SW 10.4 mph 17.3 mph N/A   Clear
5:30 PM 32.0 °F 23.6 °F 10.4 °F 41% 29.52 in 10.0 mi SW 10.4 mph - N/A   Clear
5:50 PM 32.0 °F 24.2 °F 10.4 °F 41% 29.53 in 10.0 mi SW 9.2 mph - N/A   Clear
6:10 PM 32.0 °F 25.6 °F 12.2 °F 44% 29.53 in 10.0 mi SW 6.9 mph - N/A   Clear
6:30 PM 32.0 °F 27.5 °F 12.2 °F 44% 29.53 in 10.0 mi SW 4.6 mph - N/A   Clear
6:50 PM 32.0 °F 25.6 °F 12.2 °F 44% 29.54 in 10.0 mi SW 6.9 mph - N/A   Clear
7:10 PM 32.0 °F 26.4 °F 12.2 °F 44% 29.54 in 10.0 mi SW 5.8 mph - N/A   Clear
7:30 PM 32.0 °F 26.4 °F 10.4 °F 41% 29.54 in 10.0 mi WSW 5.8 mph - N/A   Clear
7:50 PM 32.0 °F 27.5 °F 12.2 °F 44% 29.55 in 10.0 mi WSW 4.6 mph - N/A   Clear
8:10 PM 32.0 °F 27.5 °F 12.2 °F 44% 29.55 in 10.0 mi WSW 4.6 mph - N/A   Clear
8:30 PM 32.0 °F 27.5 °F 12.2 °F 44% 29.56 in 10.0 mi West 4.6 mph - N/A   Clear
8:50 PM 32.0 °F 26.4 °F 14.0 °F 48% 29.56 in 10.0 mi WSW 5.8 mph - N/A   Clear
9:10 PM 33.8 °F 27.0 °F 17.6 °F 52% 29.56 in 10.0 mi West 8.1 mph - N/A   Clear
9:30 PM 33.8 °F 27.7 °F 17.6 °F 52% 29.57 in 10.0 mi WSW 6.9 mph - N/A   Clear
9:50 PM 33.8 °F 26.4 °F 19.4 °F 56% 29.58 in 10.0 mi WSW 9.2 mph - N/A   Clear
10:10 PM 33.8 °F 27.7 °F 19.4 °F 56% 29.58 in 10.0 mi WSW 6.9 mph - N/A   Clear
10:30 PM 33.8 °F 27.7 °F 19.4 °F 56% 29.59 in 10.0 mi WSW 6.9 mph - N/A   Clear
10:50 PM 35.6 °F 29.9 °F 21.2 °F 56% 29.60 in 10.0 mi WSW 6.9 mph - N/A   Scattered Clouds
11:10 PM 35.6 °F 29.9 °F 21.2 °F 56% 29.61 in 10.0 mi WSW 6.9 mph - N/A   Mostly Cloudy
11:30 PM 35.6 °F 28.0 °F 21.2 °F 56% 29.62 in 10.0 mi WSW 10.4 mph - N/A   Mostly Cloudy
11:50 PM 35.6 °F 30.7 °F 21.2 °F 56% 29.64 in 10.0 mi West 5.8 mph - N/A   Mostly Cloudy